Location: Newark
(41.9000°N, 12.4833°E)
Time: 13:47:49
(UTC+00:00)

NOAA 18 - Pass Details

Date: 24 May 2019
Orbit: 840 x 862 km, 99.1° (Epoch: 25 June)

Event Time Altitude Azimuth Distance (km) Brightness Sun altitude
Rises 20:17:21 0° 201° (SSW) 3,418 8.1 -16.0°
Reaches altitude 10° 20:20:13 10° 215° (SW) 2,489 7.5 -16.4°
Maximum altitude 20:24:29 23° 266° (W) 1,762 7.3 -16.9°
Drops below altitude 10° 20:28:49 10° 318° (NW) 2,507 9.0 -17.4°
Sets 20:31:44 0° 332° (NNW) 3,449 10.0 -17.7°
